Wind_Speed
29 29 30 29 29 29 28 27 26 25 24 24 23 21 20 18 17 15 14 13 13 13 13 13 14 14 14 13 14 14 14 14 13 13 13 13 13 14 13 13 11 10 8 7 6 5 5 5 5 6 7 8 9 9 9 9 10 11 11 11 12 13 13 12 11 10 9 9 8 6 6 6 6 5 5 4 3 3 3 4 4 4 3 3 2
30 30 29 28 29 29 28 26 25 24 24 23 21 20 18 17 15 14 13 13 13 13 14 14 14 14 14 14 14 14 14 13 13 12 12 12 12 12 11 10 9 7 6 5 4 4 4 5 6 7 8 9 10 10 10 10 11 12 12 12 12 13 13 12 12 11 10 9 8 6 6 7 6 5 5 4 3 3 3 3 3 3 4 4 4
30 30 29 29 29 28 28 26 24 23 23 22 20 18 17 16 14 14 13 13 13 14 15 15 15 14 14 14 14 14 13 13 12 12 11 11 11 10 9 8 7 6 5 5 4 4 5 6 7 8 9 10 11 12 11 12 11 12 12 12 12 12 13 13 12 11 10 9 8 6 6 7 6 5 5 4 4 3 3 4 3 3 4 5 5
30 30 30 29 29 29 28 26 24 23 22 20 19 17 16 15 14 14 13 13 14 15 16 15 14 14 14 13 13 13 13 12 12 11 11 10 10 10 9 8 7 6 6 6 6 7 8 8 9 10 10 11 12 12 13 13 12 12 12 12 12 12 12 12 12 11 10 9 9 7 7 7 7 5 4 4 3 3 4 4 3 3 4 5 5
30 30 30 30 30 29 28 25 24 23 21 19 18 17 15 14 14 14 14 15 16 17 16 15 14 13 13 13 13 12 12 12 11 11 11 10 10 9 9 8 8 8 8 8 9 10 10 10 11 11 11 12 12 13 14 14 13 12 12 12 12 12 12 12 12 11 11 10 10 10 9 9 9 8 5 4 3 3 4 4 4 4 4 6 6
30 30 31 30 30 28 26 25 23 22 20 18 17 15 14 14 14 15 16 17 17 16 15 14 13 13 13 12 12 11 11 11 11 11 10 10 10 9 9 9 9 9 9 10 10 11 11 12 12 12 12 12 12 13 13 14 13 12 12 12 12 11 12 12 12 13 12 12 11 11 12 12 12 10 8 7 5 4 5 5 6 6 6 7 7
30 30 31 30 29 27 25 24 22 21 19 17 15 14 14 15 16 17 17 17 16 15 14 14 13 13 12 11 11 11 11 10 10 10 10 10 10 9 9 9 10 10 10 10 11 11 12 12 12 12 13 13 13 13 13 14 13 12 11 12 12 11 12 11 11 12 12 13 12 12 12 12 12 12 11 11 9 8 7 7 8 8 7 8 8
30 31 31 29 28 27 25 23 22 20 18 16 14 15 16 18 19 19 18 17 16 15 15 14 13 12 11 11 11 11 11 11 11 11 11 11 10 10 10 10 11 11 11 11 11 11 12 12 13 13 13 13 14 13 13 14 14 12 11 12 12 11 12 12 11 11 12 12 11 13 13 12 12 12 12 12 12 11 10 10 10 10 9 9 10
29 30 30 29 28 27 25 23 21 19 16 15 16 18 19 20 20 19 19 18 17 16 15 14 13 12 12 11 11 11 11 11 11 11 12 11 11 11 11 11 11 11 11 11 11 11 12 12 12 12 12 13 13 14 13 13 13 12 11 11 11 11 12 12 11 11 11 11 10 12 13 12 12 11 12 11 12 12 11 11 11 11 10 11 10
29 29 29 29 28 26 24 22 21 19 16 16 18 20 21 21 20 20 19 18 17 16 15 14 13 12 12 12 11 11 11 11 11 12 12 12 12 12 12 12 12 12 12 12 11 11 12 12 12 12 12 12 13 13 13 13 12 12 11 11 11 11 11 11 9 10 10 10 10 11 12 11 10 10 11 10 11 11 11 11 11 11 11 11 11
29 28 29 28 28 26 24 22 20 18 17 18 20 21 21 21 20 19 19 18 17 15 14 13 13 12 12 12 11 11 11 11 12 12 13 13 13 13 13 13 13 13 13 12 12 12 12 12 12 12 12 12 13 13 13 13 12 11 10 10 10 10 10 9 8 10 10 10 9 10 10 10 10 10 10 9 10 10 11 11 11 11 11 11 11
29 29 29 28 27 25 23 21 19 18 18 20 21 21 21 20 20 19 18 17 16 15 14 14 13 12 12 11 11 11 11 12 12 12 13 13 13 13 14 14 14 14 13 13 13 13 13 13 13 13 12 12 12 12 13 13 12 11 10 9 9 10 10 9 8 9 9 9 8 8 9 9 9 9 9 8 9 10 10 11 10 10 11 11 11
29 29 28 27 26 24 22 21 19 18 19 21 21 20 20 20 19 18 17 16 16 16 15 15 14 13 12 11 11 11 12 12 13 13 13 13 13 13 14 14 14 13 13 13 13 13 13 14 13 13 13 12 12 12 12 12 12 11 10 9 8 9 10 9 7 8 8 8 7 7 7 8 7 7 7 7 8 8 9 9 8 9 10 11 11
28 28 27 27 25 23 22 20 19 19 20 21 21 20 19 19 19 18 17 17 17 17 17 17 15 14 13 12 12 12 13 13 13 13 14 13 13 13 13 13 13 13 13 13 13 14 14 13 13 13 13 12 12 11 11 11 11 10 10 9 8 8 9 9 8 7 7 7 7 6 6 6 6 6 6 6 7 6 6 7 7 8 9 10 11
26 27 27 26 25 24 22 20 19 19 21 21 21 19 19 18 18 18 18 18 18 17 17 17 16 15 14 13 13 13 14 14 14 14 13 13 12 12 13 13 13 13 13 14 14 14 14 13 13 13 12 12 11 11 11 11 11 10 10 9 8 7 7 8 8 7 7 7 6 5 5 5 5 4 5 5 6 6 5 6 6 6 8 9 10
25 26 26 26 25 23 22 20 19 19 21 21 20 19 18 18 18 18 18 18 18 18 17 16 16 15 15 14 14 14 14 14 14 13 12 12 12 12 13 12 13 13 14 14 14 14 14 14 14 13 13 12 11 11 11 11 11 11 10 9 8 8 7 7 7 6 6 6 6 5 5 4 3 4 4 5 5 5 5 6 6 6 7 7 8
25 25 25 25 24 22 22 20 18 19 21 21 19 18 17 17 18 19 19 18 18 17 16 16 16 16 15 15 15 15 14 14 13 12 11 11 12 12 12 12 12 13 13 13 14 14 15 14 14 13 13 12 11 10 10 11 12 11 10 9 8 8 8 8 7 5 5 6 6 6 5 5 4 4 4 4 4 5 5 5 5 5 6 6 6
23 24 25 24 23 22 21 20 18 19 21 21 19 18 17 17 18 18 18 18 18 17 16 16 16 16 15 15 15 15 14 14 13 12 12 12 12 12 12 12 12 12 12 12 13 13 13 13 13 13 13 12 11 10 10 10 11 11 10 10 9 9 8 8 7 6 6 6 5 5 6 6 6 5 5 4 4 4 4 4 4 4 5 6 5
22 23 24 23 22 21 20 19 18 18 19 20 19 18 17 17 18 17 17 17 16 16 15 15 15 15 15 15 14 14 14 13 13 12 11 11 11 12 12 12 11 11 11 11 11 12 12 12 12 13 13 13 12 11 10 10 11 11 10 9 9 9 8 8 7 7 7 6 5 5 5 6 7 7 5 4 4 3 3 3 4 4 4 6 6
23 23 23 23 21 20 20 19 18 17 18 18 18 17 16 16 17 16 16 16 16 15 14 14 14 14 14 14 14 13 13 13 12 12 11 11 11 12 12 12 11 10 10 10 10 11 11 11 12 12 12 13 14 13 11 11 11 11 10 9 9 9 8 8 7 7 7 5 4 4 5 6 6 7 6 5 4 3 2 2 3 3 3 4 6
24 23 23 23 21 20 20 19 18 17 17 17 17 16 16 16 16 15 15 15 15 14 13 13 12 13 13 13 12 11 12 12 11 11 11 11 11 11 11 11 10 9 10 10 10 10 11 10 10 11 12 13 13 12 11 11 11 12 11 10 10 9 7 6 7 7 6 4 3 4 4 5 5 7 7 5 4 3 2 2 2 2 2 3 4
25 25 24 23 21 20 21 20 19 17 17 17 16 16 15 15 15 15 14 14 14 13 13 12 11 11 11 11 10 10 11 11 10 10 10 10 11 10 10 10 9 9 9 9 9 9 9 9 10 11 11 12 12 10 10 10 11 11 11 10 10 8 6 6 6 6 5 4 3 3 4 4 4 5 7 6 5 4 2 2 2 1 2 2 3
25 25 25 23 21 21 21 20 19 18 17 16 16 16 15 14 14 14 14 13 13 12 12 10 10 10 9 10 9 10 10 9 9 9 9 9 9 9 9 9 9 9 9 8 8 8 8 8 9 10 9 10 11 9 8 9 10 10 10 9 8 6 6 5 4 4 4 3 3 3 3 3 3 4 5 6 6 4 3 3 3 3 3 3 3
25 25 24 23 22 21 21 21 19 18 17 16 16 16 15 14 13 13 13 13 12 11 11 10 9 9 8 9 9 9 9 9 9 8 8 8 8 8 8 8 8 8 8 7 7 7 8 7 8 9 8 9 10 8 8 7 8 9 8 8 7 6 6 4 4 3 3 3 3 2 1 2 2 3 4 5 5 5 4 4 5 5 4 4 4
23 24 24 22 22 22 21 21 20 19 18 16 16 16 15 14 13 13 12 12 11 10 10 9 9 8 7 7 8 8 9 8 7 7 6 7 7 7 7 7 7 7 6 7 7 6 7 7 7 9 9 9 8 7 7 6 7 8 8 8 7 6 4 3 4 5 4 4 3 2 0 1 1 2 3 3 4 5 5 5 5 6 5 4 4
23 23 23 21 21 22 22 21 20 19 18 17 16 16 15 14 13 12 12 11 10 9 9 8 8 8 7 7 7 7 7 7 7 6 5 5 6 6 6 6 6 5 4 6 6 5 6 7 7 8 8 7 7 6 6 6 6 6 7 7 6 6 5 4 5 5 5 4 4 2 1 0 1 2 2 2 3 4 4 5 5 6 6 5 5
23 23 22 21 21 22 21 21 20 19 18 18 17 16 16 14 13 12 11 11 10 9 8 8 8 8 7 8 7 6 6 6 6 6 6 6 5 6 5 4 5 5 4 5 4 5 6 6 6 6 6 6 6 7 5 4 5 5 6 6 5 5 5 4 6 4 4 4 5 4 3 1 1 1 1 1 1 2 3 3 4 5 6 6 6
22 22 22 22 21 21 21 21 20 20 19 19 18 17 16 15 14 13 12 11 10 9 7 7 8 8 7 7 7 6 5 5 5 5 7 6 5 5 4 4 3 3 5 4 4 5 5 4 4 5 6 6 6 7 5 3 4 5 6 6 4 5 6 7 6 2 2 4 5 5 3 1 1 2 1 1 1 1 2 2 3 4 4 5 7
20 21 22 21 21 21 21 20 20 20 19 19 18 18 17 16 14 13 12 11 10 9 8 7 7 7 7 7 7 6 5 5 6 5 5 6 4 4 4 3 3 4 4 3 3 4 4 2 3 6 7 6 6 6 5 4 4 5 6 6 5 5 7 9 7 3 1 4 4 5 5 2 1 2 2 2 1 1 1 2 2 3 3 4 5
19 21 21 20 21 22 21 20 20 20 20 19 18 18 18 17 15 14 13 11 11 10 9 8 7 7 7 7 7 6 5 4 6 5 4 5 4 3 4 2 2 4 3 2 3 3 3 2 4 8 6 5 5 5 5 5 4 5 7 7 7 5 8 10 9 3 3 4 4 4 5 4 1 2 3 2 2 0 0 1 2 3 3 4 4
19 20 20 20 21 21 21 20 21 21 21 20 19 18 18 17 15 15 14 12 12 11 10 9 9 8 7 7 7 7 5 4 5 5 4 4 4 3 4 2 2 4 3 2 2 2 4 5 7 7 5 4 5 5 5 5 4 6 6 7 8 6 9 8 8 4 3 3 2 3 5 5 3 2 3 2 1 1 1 2 2 3 3 3 3
19 19 19 20 21 21 21 21 21 21 21 22 20 19 18 18 16 15 14 13 12 11 10 10 10 9 8 8 8 7 6 5 5 6 5 5 4 3 4 3 3 4 2 2 2 4 5 6 6 5 4 4 4 4 5 5 5 6 6 7 8 7 7 7 5 8 1 2 1 4 5 5 6 3 2 1 1 1 1 2 3 3 3 3 3
20 19 19 20 20 20 20 21 22 21 21 22 21 20 19 18 17 16 15 14 13 11 11 11 10 9 8 9 8 8 7 5 5 5 5 4 3 2 3 3 3 2 2 3 3 4 5 4 4 4 4 4 3 4 4 5 5 7 6 7 8 6 5 8 3 10 0 3 2 4 5 5 6 5 2 1 2 2 2 2 3 3 4 4 4
21 21 20 20 20 21 21 21 22 22 22 22 21 20 20 19 18 17 16 15 13 12 12 11 10 9 9 9 8 8 7 6 5 5 4 4 3 2 2 2 2 2 2 3 2 3 3 3 3 3 4 3 3 4 4 4 5 6 6 7 6 5 3 6 4 7 1 4 4 3 5 5 4 5 4 3 2 2 2 2 3 3 4 4 4
22 21 21 21 21 22 21 21 21 22 22 22 22 21 20 20 19 18 17 15 14 13 12 11 10 10 9 8 8 8 7 7 6 5 5 4 3 2 2 1 1 2 1 2 2 2 2 3 3 3 3 2 3 3 4 5 5 6 6 5 4 3 3 5 6 2 2 3 4 2 3 4 4 5 4 4 4 3 2 2 2 3 4 4 4
23 22 22 22 22 22 22 21 21 22 22 22 22 21 21 20 19 18 17 15 15 14 12 11 10 10 9 8 8 8 8 7 6 6 5 4 4 3 2 1 1 1 1 2 3 2 2 2 3 3 2 2 3 3 4 5 5 5 5 5 5 4 2 2 5 4 2 2 3 2 3 4 4 5 4 4 4 4 4 3 2 2 3 4 4
23 23 23 23 23 23 22 22 22 22 22 22 22 22 21 20 20 19 18 16 15 14 13 12 11 10 10 9 8 8 8 7 7 6 6 5 4 2 2 1 0 1 2 2 3 3 2 2 3 3 2 2 3 4 4 5 5 6 6 6 7 5 4 1 4 6 4 3 2 2 4 4 4 4 4 5 4 4 4 4 3 3 4 4 5
22 23 23 23 23 23 23 22 22 22 23 23 23 22 21 21 20 20 18 17 16 15 14 13 12 11 11 10 9 8 8 7 7 7 6 6 4 2 2 1 1 0 2 2 2 3 3 3 3 2 2 2 3 4 5 6 6 8 7 6 6 4 4 1 5 5 3 3 2 2 3 4 4 4 4 5 5 5 4 4 4 4 4 5 6
22 23 23 23 23 23 23 23 23 23 23 24 24 23 23 22 22 21 19 18 17 16 15 13 13 12 12 11 10 9 8 8 8 7 7 7 5 3 2 2 2 1 1 2 1 2 3 3 2 2 2 2 2 3 5 6 6 7 7 6 4 3 1 3 7 5 3 3 2 1 2 3 4 4 5 6 5 5 6 5 5 5 5 5 6
24 24 23 23 24 24 24 24 23 23 24 25 25 24 23 23 23 21 19 18 18 17 15 14 13 12 11 10 9 9 9 8 8 8 8 8 6 4 3 3 3 2 2 3 2 3 3 3 2 2 1 2 2 3 4 5 5 6 6 5 5 5 3 4 7 5 3 2 1 1 2 3 4 5 5 6 6 6 7 7 6 7 7 7 7
25 26 25 24 24 25 25 25 24 23 24 24 25 24 23 22 22 21 19 18 18 17 15 14 13 13 12 11 10 9 9 8 8 8 8 9 7 5 4 3 3 2 3 3 3 3 3 3 2 2 2 2 3 3 4 5 6 6 5 4 5 5 4 4 5 4 3 1 1 2 3 3 5 6 6 6 7 7 7 8 8 8 9 9 9
25 26 26 25 25 25 25 25 25 24 24 23 23 23 22 21 21 20 18 18 18 17 15 14 14 14 13 12 11 10 9 8 9 8 8 9 8 6 4 3 3 4 4 4 3 3 3 3 3 2 2 2 3 3 5 7 8 6 4 3 4 5 3 3 2 2 3 1 1 2 5 4 6 6 7 6 6 6 6 9 10 9 10 11 11
25 26 27 26 25 26 26 27 27 25 24 23 23 23 22 20 20 20 19 18 18 17 16 15 15 15 14 12 12 11 10 9 9 9 9 9 8 7 5 4 4 4 5 4 4 3 2 3 3 2 2 3 3 4 6 9 9 6 4 3 3 5 4 3 1 1 2 1 1 1 4 6 6 6 5 4 3 4 5 7 9 9 10 11 13
27 26 26 27 26 26 26 26 27 26 25 24 23 23 22 22 21 20 20 19 18 18 17 17 17 17 15 13 12 12 11 10 10 10 10 10 9 8 6 5 5 4 5 5 4 3 2 2 2 3 2 3 3 4 7 9 8 6 6 5 2 3 2 2 2 1 1 1 0 1 2 4 5 5 5 3 3 3 4 5 6 8 9 10 11
27 26 25 25 25 25 25 26 27 27 26 25 23 23 24 24 23 23 23 22 21 19 19 18 18 17 15 13 13 13 11 11 11 11 11 10 10 9 7 6 6 6 5 5 4 3 3 3 3 3 3 4 4 5 7 7 6 5 6 6 3 1 0 2 2 0 1 0 0 0 1 3 4 5 5 4 4 3 3 4 5 7 8 8 8
27 26 25 24 24 24 24 25 26 26 26 25 24 24 24 25 25 24 23 23 22 19 17 16 16 16 15 15 14 14 13 12 12 12 12 11 11 10 8 7 7 7 6 5 5 4 4 4 4 3 3 4 5 6 7 6 5 5 5 5 3 3 1 2 1 0 0 1 1 1 2 3 3 4 5 6 6 5 4 4 5 6 7 8 8
24 24 25 25 25 24 24 24 26 26 26 25 25 24 24 24 24 24 23 22 21 18 16 15 16 16 16 16 15 14 14 12 12 12 13 12 12 10 9 9 8 8 7 7 6 5 5 5 5 4 4 4 5 6 7 6 5 5 5 5 4 3 1 1 1 1 1 2 2 3 3 3 4 4 5 7 5 4 5 6 7 7 7 8 8
21 22 24 26 25 24 23 23 25 26 25 25 25 24 24 23 23 23 23 22 20 19 18 17 16 16 16 17 16 15 14 13 12 13 13 13 13 12 11 10 9 9 9 8 7 6 6 6 5 5 5 5 4 6 7 5 4 5 5 4 4 3 2 1 1 1 1 3 4 4 5 5 6 5 6 9 7 4 5 7 7 8 8 8 7
22 19 20 22 24 24 23 23 24 26 26 25 25 25 24 23 22 22 22 21 20 19 19 19 18 18 17 17 17 15 14 14 13 14 14 14 13 13 13 12 11 11 10 9 9 8 7 7 7 6 5 5 4 5 5 4 3 4 5 4 5 4 3 2 1 1 1 3 3 4 5 6 8 7 6 9 11 9 7 7 9 8 8 8 7
22 17 17 19 22 24 24 25 24 25 26 26 25 25 24 23 22 22 22 21 21 20 20 20 20 19 18 16 16 16 15 14 14 14 14 15 15 14 14 14 13 12 11 10 10 9 8 8 8 7 6 5 5 5 5 3 1 2 4 5 6 6 5 4 3 1 0 1 2 3 5 5 7 6 4 7 11 12 10 9 10 10 7 6 7
24 21 19 19 21 24 25 25 24 24 25 26 25 25 24 23 22 22 22 21 21 22 22 21 20 19 17 16 15 15 15 15 15 15 13 14 15 15 15 15 15 14 12 11 10 10 10 9 9 8 7 6 6 5 5 3 2 1 2 4 5 5 5 5 4 3 2 1 1 2 3 5 6 6 5 6 9 13 13 11 11 11 8 5 5
Wind_Direction
136 136 137 138 136 135 134 133 131 130 129 128 127 127 126 126 128 131 132 131 129 126 126 125 123 122 117 110 104 102 99 99 100 102 104 108 112 115 120 124 126 124 121 111 92 74 55 44 56 72 78 72 68 67 64 64 64 64 66 74 75 76 79 85 92 98 105 115 125 138 156 167 168 178 186 181 179 169 171 168 186 205 201 196 150
136 137 138 138 136 137 134 132 130 131 129 128 128 127 126 127 131 131 130 128 128 129 129 128 125 120 112 106 102 100 99 101 102 103 106 108 110 113 117 121 124 122 117 106 90 74 61 66 80 87 85 78 74 70 63 62 67 68 70 76 80 82 83 85 87 91 96 99 103 116 136 150 153 162 175 179 176 159 157 155 176 189 190 186 147
138 138 139 137 137 137 134 133 132 131 130 129 127 126 128 129 130 128 127 128 129 131 132 129 124 117 109 106 102 102 103 105 107 108 109 110 111 112 114 115 115 114 112 107 97 88 85 89 93 94 89 82 77 71 63 62 68 71 72 76 80 83 87 88 88 89 92 92 90 97 116 129 138 144 153 166 174 165 158 147 153 159 170 180 163
140 140 140 139 138 137 135 136 134 132 131 128 128 128 129 128 128 126 127 129 131 132 131 127 120 116 111 107 105 105 106 108 110 111 112 113 113 111 111 109 108 109 109 107 101 96 93 93 95 94 88 82 78 73 66 63 68 72 73 76 79 82 86 88 88 89 91 91 85 86 102 114 115 114 120 137 155 162 157 145 141 145 159 170 165
141 141 140 140 139 139 138 137 135 132 131 129 129 128 126 126 127 127 128 128 130 130 128 124 120 117 113 109 108 107 109 110 111 112 113 114 113 111 109 106 104 104 104 103 99 96 93 91 92 89 83 80 78 76 70 66 68 74 75 77 81 83 83 86 87 87 89 91 85 82 88 94 94 91 94 109 130 147 146 140 137 140 150 150 150
142 141 141 142 140 140 140 138 134 131 131 129 127 125 125 127 127 125 124 125 126 127 125 123 121 118 114 111 110 111 111 111 111 111 111 113 113 112 110 106 102 100 101 100 98 97 92 88 87 83 79 78 80 80 75 69 68 75 79 78 81 82 83 85 88 89 90 89 87 88 88 87 87 88 90 93 101 119 130 133 131 132 138 137 134
142 141 141 142 141 141 141 137 133 131 130 127 124 124 126 126 123 122 121 123 125 127 126 124 121 117 114 114 114 113 112 111 109 108 109 111 111 110 108 105 100 98 98 96 95 93 86 82 80 79 77 78 81 81 78 72 68 74 81 81 79 79 80 81 87 93 94 90 90 92 90 88 90 92 93 92 93 99 110 120 122 124 131 132 123
142 142 142 143 142 142 140 137 133 130 128 125 124 125 126 123 120 119 121 124 125 126 124 122 119 117 118 118 118 113 110 108 107 106 108 109 108 106 103 102 99 98 96 94 92 88 82 79 79 79 79 80 81 80 79 76 71 71 78 83 80 75 75 80 89 96 96 94 92 91 89 90 92 93 93 94 94 95 99 107 116 120 128 132 128
143 143 144 145 144 143 140 138 133 129 127 125 126 126 123 120 119 120 122 122 121 120 119 118 118 119 122 121 117 111 108 107 106 106 106 106 104 102 101 101 99 96 94 93 90 86 83 81 82 81 82 82 82 82 81 80 75 71 72 80 83 77 75 82 91 97 99 97 93 90 90 89 89 92 93 93 93 93 95 100 108 116 128 138 139
146 146 146 147 146 144 141 137 132 128 129 128 127 125 123 121 121 122 121 119 116 114 114 115 118 121 123 120 116 110 107 107 108 107 106 104 102 102 101 100 98 96 93 91 87 84 82 81 81 80 80 80 80 82 81 81 79 75 73 75 81 82 80 81 85 94 98 98 93 89 89 89 89 91 92 93 94 94 94 96 102 109 124 138 142
149 148 148 148 147 145 141 137 132 129 130 129 128 125 124 124 123 122 119 115 112 112 112 113 115 118 118 117 114 110 106 106 108 108 105 103 102 102 101 99 96 93 91 88 85 82 80 78 77 75 75 76 77 78 80 80 79 78 77 75 80 82 83 83 86 94 97 96 93 90 89 90 91 89 89 93 95 96 96 95 98 105 115 127 135
151 150 150 150 148 144 140 137 133 131 131 130 129 128 127 127 124 121 115 112 110 109 109 108 108 108 109 110 110 108 106 108 109 107 103 101 100 99 97 95 93 90 88 85 83 80 77 74 72 71 71 71 73 74 76 78 77 77 78 78 79 79 81 83 89 94 96 95 92 93 95 93 90 87 88 93 93 95 97 96 98 104 111 119 127
151 151 152 151 148 143 142 140 135 132 133 132 131 131 130 128 124 118 113 110 108 107 105 103 100 100 100 103 106 107 108 109 109 105 102 101 99 97 94 91 88 84 82 79 77 74 72 70 68 66 66 67 69 71 73 76 77 76 76 77 78 78 79 83 87 85 87 95 94 93 97 95 87 82 84 91 93 94 98 100 103 110 116 118 121
152 153 154 151 148 146 147 142 135 135 135 134 134 133 132 129 122 116 112 110 108 107 103 100 97 95 95 98 103 107 110 109 107 104 102 101 98 94 89 85 81 78 76 74 72 70 67 65 63 62 62 64 65 68 71 76 77 76 75 72 73 75 79 82 80 76 79 89 95 91 90 91 83 80 85 92 94 96 99 104 112 120 121 122 123
154 156 155 153 152 151 150 142 136 138 138 137 136 136 134 129 122 117 114 112 110 106 103 100 97 94 93 95 101 106 109 109 106 104 103 100 96 90 85 80 79 79 77 74 71 67 63 59 58 58 58 61 64 66 69 74 77 77 76 72 69 69 77 84 80 76 81 87 92 91 89 87 78 80 88 95 102 107 108 109 120 132 130 128 130
158 159 157 157 156 155 151 143 140 140 140 140 139 139 135 129 124 121 117 114 111 106 103 100 98 95 94 97 102 106 109 109 105 104 101 99 95 90 86 84 85 84 80 76 71 65 60 56 54 53 54 58 62 65 69 72 73 74 75 74 69 66 65 70 74 73 76 80 80 78 83 83 76 84 86 94 110 116 117 117 126 143 146 139 138
161 162 161 161 160 158 153 147 144 143 143 142 142 141 136 131 128 125 120 116 111 107 105 101 100 98 98 100 103 107 109 110 108 106 104 101 98 94 92 91 91 88 84 79 71 64 59 55 51 50 51 55 60 62 68 72 69 68 69 70 69 68 64 63 68 70 67 67 66 63 69 73 71 83 87 98 112 115 117 118 129 147 157 154 150
161 164 165 165 163 161 156 153 149 146 146 145 146 143 138 135 131 128 121 116 112 110 109 105 103 101 101 102 104 107 110 113 112 110 110 107 104 102 100 97 94 91 88 81 70 63 58 54 52 51 53 57 62 61 64 67 64 61 59 60 66 70 69 65 62 61 60 54 56 59 60 65 66 72 82 104 118 115 115 115 123 143 158 169 170
162 164 167 169 167 164 160 158 153 149 149 149 149 145 141 139 135 129 122 118 117 116 116 112 108 105 102 101 104 108 112 114 114 115 114 113 111 108 105 101 99 96 91 83 72 65 60 56 54 55 59 63 67 66 65 66 62 59 57 59 68 72 68 62 54 53 59 53 55 58 56 64 66 68 73 99 128 127 120 117 117 128 150 167 179
164 166 168 171 172 168 165 163 157 152 153 154 152 148 146 143 137 131 126 123 123 123 121 118 114 108 104 102 103 108 113 115 117 118 118 117 114 111 109 106 104 100 93 85 76 68 64 59 56 60 64 66 71 72 70 68 63 60 59 61 64 65 62 59 55 50 52 54 61 60 56 63 66 67 68 83 111 116 111 121 121 118 132 156 172
166 169 172 174 175 172 170 167 162 158 157 159 156 154 152 147 141 135 132 129 130 130 126 123 119 113 109 106 103 105 108 111 115 117 117 118 116 114 111 110 107 100 92 85 78 70 64 60 60 65 66 65 70 72 71 66 60 58 59 57 57 58 51 47 51 48 48 52 55 57 53 57 65 70 70 72 82 90 86 106 121 100 101 131 155
168 172 175 177 178 175 174 171 168 164 162 164 161 160 159 151 145 140 137 135 136 134 129 127 122 116 111 106 106 107 107 111 118 120 119 120 119 116 112 111 107 99 93 87 81 74 68 63 60 66 69 65 63 63 66 63 57 55 55 51 50 55 48 34 37 38 44 54 48 48 51 52 62 71 74 73 72 76 74 93 111 72 69 87 117
174 175 176 179 180 178 177 175 171 168 166 169 167 166 164 156 149 144 142 141 141 138 133 131 124 116 109 107 108 108 111 116 121 125 127 124 119 116 113 110 109 104 100 93 85 76 70 64 61 67 71 68 63 55 52 53 54 53 51 48 41 42 49 35 26 31 30 39 46 47 54 54 64 71 79 82 77 78 80 85 90 81 79 84 96
179 179 180 179 180 181 179 177 174 172 172 173 174 172 168 161 154 149 147 147 147 144 139 134 127 117 109 110 110 108 111 114 121 128 129 126 120 117 114 112 113 110 106 99 89 78 72 65 62 64 64 66 62 51 45 39 44 51 46 44 36 26 38 28 359 16 12 3 25 39 69 77 77 79 83 91 89 87 89 80 75 73 78 89 96
183 184 186 183 181 183 182 179 176 176 177 178 180 177 172 167 160 156 155 155 154 152 148 143 133 123 114 109 108 109 113 116 122 127 128 128 125 119 118 122 119 114 111 100 91 83 77 67 59 58 55 58 57 49 49 38 36 44 36 31 31 10 13 46 7 349 347 350 8 11 49 121 100 88 86 99 99 95 91 79 72 66 60 76 97
187 189 190 186 182 185 185 182 180 179 179 182 185 181 177 171 165 164 163 162 161 161 158 150 139 131 124 116 109 105 110 115 115 122 134 130 125 123 124 124 114 108 102 84 81 75 65 54 53 59 55 54 56 51 48 43 40 38 35 30 24 1 353 64 46 343 331 345 359 5 354 287 167 106 86 90 99 100 95 82 76 72 64 63 79
191 192 194 190 186 187 187 185 183 182 181 185 188 184 181 175 171 172 170 168 167 168 164 153 145 139 134 129 124 116 114 112 107 114 126 126 122 123 121 109 102 103 88 67 65 67 58 42 44 60 62 55 48 47 46 47 39 26 38 35 25 17 344 13 42 353 317 348 357 10 8 312 237 156 101 70 77 88 95 86 76 79 78 72 70
193 194 196 193 189 190 189 187 187 186 185 189 189 185 183 180 179 178 178 175 171 173 172 161 150 145 147 142 135 135 132 122 114 106 113 122 117 113 114 106 105 89 74 64 56 61 64 52 45 58 59 51 40 35 38 39 26 13 27 27 22 33 349 338 21 40 296 2 7 10 19 331 255 194 153 130 107 92 90 75 70 73 78 79 73
194 196 198 194 193 195 193 190 190 189 189 192 191 187 186 186 185 184 185 180 176 177 171 165 158 153 155 151 145 148 149 136 127 116 118 127 119 112 109 106 106 79 72 77 62 56 73 80 56 62 54 41 36 23 17 20 11 10 14 6 4 35 23 349 1 95 99 7 7 6 22 12 279 198 193 181 181 137 97 79 73 66 66 73 72
194 197 200 197 196 199 197 194 193 193 192 194 196 191 190 191 188 187 190 185 182 180 169 165 168 166 162 156 155 159 163 146 129 129 134 124 122 111 95 100 101 80 73 66 61 64 85 76 44 56 54 35 30 14 11 17 0 2 4 359 1 34 54 11 345 73 81 350 344 1 25 27 19 179 204 206 192 210 80 59 56 56 53 58 61
196 198 200 198 199 201 199 198 197 196 195 196 199 196 194 194 192 191 194 191 188 185 174 170 174 176 171 164 167 169 169 154 130 137 146 126 127 110 92 103 62 71 79 64 52 57 64 52 47 53 54 38 21 6 4 10 355 353 357 357 0 20 67 42 337 360 48 303 308 12 24 31 37 135 188 222 221 233 337 345 4 32 32 30 39
195 197 200 199 199 201 201 200 199 198 198 199 201 200 197 197 197 195 196 196 195 190 181 178 182 181 175 171 177 179 173 166 148 149 158 145 140 133 115 111 66 64 77 62 29 38 49 47 52 53 47 36 14 6 360 1 350 345 351 351 1 13 72 90 314 318 7 231 323 29 24 31 34 55 146 222 270 298 332 335 341 2 11 11 18
193 196 201 201 200 201 202 202 200 200 201 202 204 203 201 201 201 199 199 200 197 190 185 186 187 185 181 177 183 187 182 179 171 163 161 151 147 153 126 109 89 74 56 59 41 43 54 55 63 55 42 29 2 12 4 354 344 342 348 349 5 14 68 104 299 304 119 140 51 35 19 27 32 31 26 305 291 307 323 319 323 335 349 358 1
192 194 199 201 201 201 202 203 202 204 204 204 205 204 204 204 203 202 201 200 198 192 190 191 189 190 188 184 187 192 190 186 186 186 174 162 167 155 92 85 88 68 42 52 54 58 68 64 66 55 44 31 357 13 5 347 343 342 344 347 5 17 57 132 226 299 48 99 69 48 17 20 24 23 21 356 315 300 298 299 312 319 327 339 345
195 196 198 198 200 201 203 204 204 206 205 205 206 205 206 206 206 206 203 200 198 196 193 192 192 195 193 188 193 195 194 192 192 197 186 179 188 158 109 129 124 81 31 20 25 51 71 59 52 43 38 27 358 14 3 346 352 345 342 348 353 23 61 182 213 297 35 55 57 45 18 19 7 11 14 11 358 338 324 293 292 307 314 318 321
198 198 198 197 200 202 203 204 204 205 206 207 207 206 207 207 207 208 205 201 199 197 194 194 193 197 196 192 199 198 197 197 196 202 196 196 205 174 153 205 157 95 348 353 17 19 33 43 47 36 22 15 10 22 12 358 5 355 346 356 351 359 25 206 187 148 138 65 54 22 27 27 10 13 0 351 359 355 351 329 288 272 289 296 301
201 200 201 199 199 201 202 203 203 204 206 207 208 208 208 207 208 207 204 201 200 197 193 196 195 195 198 197 200 200 199 200 198 205 208 207 213 189 168 228 305 69 333 337 19 10 3 30 45 35 5 14 24 23 23 18 20 13 1 360 360 343 314 303 136 146 150 106 76 37 37 33 19 17 354 343 354 359 350 338 314 278 271 277 282
208 203 204 203 202 202 201 203 202 203 206 207 208 209 209 208 208 207 204 201 200 196 194 197 197 198 201 200 200 202 201 202 202 208 216 218 218 211 191 221 285 338 320 331 21 6 352 10 29 28 3 20 28 18 28 32 27 24 15 0 357 329 289 158 135 148 146 120 91 55 40 29 21 9 347 337 346 353 343 331 324 307 286 277 274
214 210 207 206 206 204 202 204 203 202 203 205 207 209 209 208 209 207 204 201 199 196 195 197 199 203 206 203 200 203 204 207 211 212 220 226 223 217 216 240 257 256 316 327 9 1 346 346 343 354 9 31 31 17 31 40 31 24 21 17 17 9 345 153 152 152 146 133 116 90 29 11 7 0 345 328 322 327 328 328 321 313 302 289 284
213 213 210 208 209 208 206 206 205 205 204 204 206 208 208 207 207 207 204 200 198 197 197 200 204 208 211 209 205 207 209 211 218 218 220 229 230 219 212 235 257 266 311 324 341 344 334 323 307 310 346 28 25 17 32 39 28 16 17 32 51 57 73 144 149 145 152 149 134 83 6 1 357 355 340 317 305 301 313 322 314 304 298 293 291
211 212 211 210 211 209 208 209 208 209 208 206 206 206 207 206 205 205 203 200 199 200 200 204 210 214 217 215 212 214 215 217 223 223 223 230 233 231 230 244 274 292 303 322 325 322 322 303 297 314 328 8 11 359 16 19 12 9 19 44 58 63 90 135 141 145 159 155 90 359 341 11 27 9 351 329 307 290 292 302 304 298 291 288 289
213 213 211 211 212 211 209 210 211 212 211 209 207 206 206 205 205 203 202 202 201 203 204 207 215 219 221 220 219 221 220 222 227 226 228 232 236 241 254 276 301 308 309 318 315 315 330 307 295 307 314 353 7 355 360 3 4 14 31 46 57 70 102 135 142 153 148 149 30 351 334 12 49 23 359 348 320 300 287 291 298 293 282 280 283
218 214 212 211 213 214 212 210 212 212 212 211 209 208 205 204 207 205 203 203 203 206 209 211 219 223 223 222 225 228 227 229 232 230 231 234 237 240 250 268 289 302 301 317 327 324 322 293 276 284 305 340 353 351 351 354 2 16 23 12 59 85 94 115 118 127 126 129 53 16 339 357 28 20 6 4 339 321 301 295 300 300 294 287 282
223 217 214 213 214 217 216 213 213 213 212 212 209 209 207 204 207 208 207 207 207 208 211 214 221 227 227 225 229 234 234 235 237 234 233 235 238 241 245 255 272 285 291 314 323 303 296 280 274 290 307 330 337 348 349 352 6 16 9 358 29 101 105 132 130 120 108 105 54 68 347 345 360 6 14 20 357 328 311 303 303 311 316 308 294
226 223 218 216 217 219 220 217 215 215 213 213 211 208 208 206 207 210 211 211 211 210 212 215 221 229 232 231 234 239 238 238 239 235 233 233 235 242 249 252 263 277 286 301 300 300 316 298 286 296 306 325 339 358 355 354 13 19 11 7 11 26 31 142 138 121 86 97 321 23 316 321 337 343 348 355 354 337 322 315 312 320 325 326 323
226 226 222 219 219 221 222 220 218 218 216 214 214 210 209 209 209 212 214 215 217 216 217 220 224 230 236 237 238 240 242 239 238 236 232 232 234 241 249 253 261 272 277 284 289 302 306 286 285 294 298 319 340 0 1 0 16 22 16 11 7 7 22 121 146 229 5 325 327 336 303 306 319 326 328 332 333 321 318 328 327 329 329 333 340
226 226 224 221 221 221 222 222 220 220 219 216 216 214 212 212 212 215 217 219 221 222 222 223 226 229 235 240 239 239 242 241 238 235 233 233 234 240 247 251 258 266 273 277 280 287 283 275 279 289 296 310 332 355 1 6 18 26 25 17 16 22 36 121 155 223 298 312 324 321 310 306 299 303 310 312 317 307 307 323 329 332 337 336 338
224 226 225 223 222 222 221 221 221 222 222 219 217 218 217 216 215 216 219 221 223 223 223 224 227 229 232 238 239 238 242 244 239 236 235 233 232 238 246 250 254 261 269 274 275 276 272 269 272 281 294 300 319 350 357 5 22 35 43 35 32 36 46 126 202 246 273 291 303 309 317 316 306 313 316 316 333 344 320 323 329 331 331 332 333
223 225 225 226 225 224 222 221 221 222 223 221 219 219 220 220 219 219 221 223 223 223 223 224 227 230 232 236 239 239 240 245 243 237 237 237 233 234 241 248 252 255 260 267 270 270 272 274 273 272 279 287 306 336 344 357 32 53 64 65 64 63 66 75 33 308 261 279 293 303 311 309 306 320 324 317 328 339 340 338 335 337 332 328 331
222 225 224 227 226 224 222 220 221 221 222 222 220 219 221 221 220 221 221 222 223 223 224 225 227 230 232 233 238 240 237 240 245 241 238 241 240 236 238 244 250 253 256 259 264 268 273 275 270 267 268 275 292 314 327 336 23 75 82 86 85 83 79 73 56 46 258 296 318 299 303 310 317 335 332 307 317 329 346 354 336 342 349 328 329
222 225 222 224 226 225 223 221 221 221 221 222 220 218 221 221 220 221 221 221 223 223 225 227 228 231 234 233 237 242 240 237 242 244 241 242 245 242 241 244 248 253 254 253 256 262 266 268 267 267 265 264 278 296 307 299 254 182 116 102 92 88 82 76 67 64 66 36 10 315 333 350 349 2 348 314 314 319 337 356 339 338 354 340 337
Height
3165 3167 3168 3169 3171 3172 3174 3176 3177 3179 3180 3181 3182 3183 3184 3184 3185 3187 3188 3189 3189 3190 3191 3192 3193 3194 3194 3195 3195 3195 3196 3196 3197 3198 3199 3200 3200 3201 3201 3202 3203 3203 3204 3204 3204 3204 3205 3205 3205 3205 3205 3205 3204 3204 3204 3204 3204 3204 3203 3203 3203 3202 3202 3202 3202 3203 3203 3203 3204 3204 3205 3206 3206 3207 3208 3208 3209 3209 3210 3211 3211 3212 3213 3213 3213
3166 3168 3170 3171 3172 3174 3175 3177 3179 3180 3181 3182 3183 3184 3185 3185 3187 3188 3189 3189 3190 3191 3192 3193 3194 3195 3195 3195 3196 3196 3197 3198 3198 3199 3200 3201 3201 3202 3202 3203 3204 3204 3204 3204 3205 3205 3205 3206 3206 3206 3205 3205 3205 3205 3205 3204 3204 3204 3204 3204 3204 3203 3203 3204 3204 3204 3204 3205 3205 3205 3205 3206 3207 3207 3208 3209 3209 3210 3210 3211 3212 3213 3213 3214 3214
3167 3169 3171 3172 3174 3175 3177 3179 3180 3182 3183 3184 3184 3185 3186 3187 3188 3189 3189 3190 3191 3192 3193 3194 3195 3195 3196 3196 3197 3197 3198 3199 3200 3200 3201 3201 3202 3202 3203 3204 3204 3205 3205 3205 3206 3206 3206 3206 3206 3206 3206 3206 3206 3206 3206 3205 3205 3205 3205 3205 3205 3204 3204 3205 3205 3205 3205 3206 3206 3206 3206 3207 3207 3207 3208 3209 3209 3210 3210 3211 3212 3213 3213 3214 3215
3169 3170 3172 3174 3175 3176 3178 3180 3182 3183 3184 3185 3185 3186 3187 3188 3189 3190 3190 3191 3192 3193 3194 3195 3196 3196 3197 3197 3198 3199 3199 3200 3201 3201 3202 3202 3203 3203 3204 3204 3205 3205 3205 3206 3206 3207 3207 3207 3207 3207 3207 3206 3206 3207 3206 3206 3206 3206 3206 3206 3206 3205 3205 3206 3206 3206 3206 3207 3207 3207 3207 3207 3207 3208 3208 3209 3210 3210 3210 3211 3212 3213 3213 3214 3215
3170 3172 3173 3175 3176 3178 3179 3181 3183 3184 3185 3186 3186 3187 3188 3189 3190 3191 3191 3192 3193 3194 3195 3196 3196 3197 3198 3198 3199 3200 3201 3201 3202 3202 3203 3203 3203 3204 3204 3205 3205 3206 3206 3206 3207 3207 3207 3207 3207 3207 3207 3207 3207 3207 3207 3207 3207 3207 3206 3206 3206 3206 3207 3207 3207 3207 3207 3208 3208 3208 3208 3208 3208 3208 3209 3209 3210 3210 3211 3211 3212 3213 3214 3214 3215
3172 3173 3174 3176 3178 3179 3181 3182 3184 3185 3186 3186 3187 3188 3189 3190 3191 3191 3192 3193 3194 3195 3196 3197 3197 3198 3199 3199 3200 3201 3202 3202 3203 3203 3204 3204 3204 3205 3205 3205 3206 3206 3207 3207 3207 3208 3208 3208 3208 3208 3208 3208 3208 3208 3208 3208 3208 3207 3207 3207 3207 3207 3208 3208 3208 3208 3208 3208 3209 3208 3208 3208 3208 3209 3210 3210 3210 3211 3211 3212 3213 3213 3214 3215 3216
3173 3174 3176 3177 3179 3181 3182 3183 3185 3186 3186 3187 3188 3189 3190 3191 3192 3192 3193 3195 3195 3196 3197 3198 3198 3199 3200 3200 3201 3202 3202 3203 3203 3204 3204 3205 3205 3205 3206 3206 3207 3207 3207 3208 3208 3208 3208 3209 3209 3209 3209 3209 3209 3209 3209 3209 3209 3208 3208 3208 3208 3208 3209 3209 3209 3209 3209 3209 3210 3210 3209 3209 3210 3210 3211 3210 3211 3211 3212 3212 3213 3214 3214 3215 3217
3174 3175 3177 3179 3180 3182 3183 3184 3185 3186 3187 3188 3189 3190 3191 3192 3193 3194 3195 3196 3197 3197 3198 3199 3199 3200 3201 3201 3202 3203 3203 3203 3204 3204 3205 3205 3206 3206 3207 3207 3208 3208 3208 3209 3209 3209 3209 3209 3210 3210 3210 3210 3210 3210 3210 3210 3210 3209 3209 3209 3209 3209 3210 3210 3210 3210 3210 3211 3211 3211 3211 3211 3211 3211 3212 3211 3212 3212 3212 3212 3213 3214 3215 3216 3217
3175 3177 3178 3180 3181 3182 3184 3185 3186 3187 3188 3189 3190 3191 3192 3193 3194 3195 3196 3197 3198 3198 3199 3199 3200 3201 3202 3202 3203 3203 3204 3204 3204 3205 3205 3206 3207 3207 3208 3208 3209 3209 3209 3210 3210 3210 3210 3210 3210 3211 3211 3211 3211 3211 3211 3211 3211 3210 3210 3210 3210 3210 3211 3211 3211 3211 3211 3212 3212 3212 3212 3212 3212 3213 3213 3213 3213 3213 3213 3213 3214 3214 3215 3216 3218
3176 3177 3179 3181 3182 3183 3184 3186 3187 3188 3189 3190 3191 3192 3193 3194 3195 3196 3197 3198 3198 3199 3199 3200 3201 3202 3203 3203 3204 3204 3204 3205 3205 3206 3207 3207 3208 3208 3209 3209 3209 3210 3210 3211 3211 3211 3211 3211 3211 3212 3212 3212 3212 3212 3212 3212 3211 3211 3211 3211 3211 3211 3212 3212 3212 3212 3212 3212 3213 3213 3213 3213 3214 3214 3214 3214 3214 3214 3214 3214 3214 3215 3216 3217 3217
3176 3178 3180 3181 3183 3184 3185 3186 3187 3189 3190 3191 3192 3193 3194 3195 3196 3197 3198 3198 3199 3200 3200 3201 3202 3203 3203 3204 3204 3205 3205 3206 3207 3207 3208 3208 3209 3209 3210 3210 3211 3211 3212 3212 3212 3212 3212 3212 3212 3213 3213 3213 3213 3213 3213 3213 3213 3212 3212 3212 3212 3212 3213 3213 3212 3213 3213 3213 3213 3214 3214 3214 3215 3215 3215 3215 3215 3215 3215 3215 3215 3216 3216 3217 3217
3177 3179 3180 3182 3183 3185 3186 3187 3188 3189 3191 3192 3193 3194 3196 3197 3198 3198 3199 3199 3200 3201 3202 3202 3203 3204 3204 3205 3205 3206 3207 3207 3208 3208 3209 3210 3210 3211 3211 3212 3212 3213 3213 3213 3213 3214 3214 3214 3214 3214 3214 3214 3214 3214 3214 3214 3214 3213 3213 3213 3213 3213 3214 3213 3213 3214 3214 3214 3214 3215 3215 3216 3216 3216 3216 3216 3216 3217 3216 3216 3216 3217 3217 3218 3218
3178 3180 3181 3182 3184 3185 3187 3188 3189 3190 3191 3193 3194 3196 3197 3198 3198 3199 3199 3200 3201 3202 3203 3204 3204 3205 3205 3206 3206 3207 3208 3208 3209 3210 3210 3211 3212 3212 3213 3213 3214 3214 3214 3215 3215 3215 3215 3215 3215 3215 3214 3214 3214 3215 3215 3215 3215 3215 3214 3214 3214 3214 3214 3214 3214 3214 3215 3215 3215 3216 3216 3217 3217 3217 3217 3217 3217 3217 3217 3217 3217 3218 3218 3218 3219
3179 3180 3182 3183 3185 3186 3188 3189 3190 3191 3192 3194 3195 3197 3198 3199 3199 3199 3200 3201 3202 3203 3204 3205 3205 3206 3206 3207 3207 3208 3209 3210 3210 3211 3211 3212 3213 3214 3214 3214 3215 3215 3215 3216 3216 3216 3216 3216 3215 3215 3215 3215 3215 3215 3216 3216 3216 3216 3216 3215 3215 3215 3215 3215 3215 3215 3215 3216 3216 3216 3217 3217 3218 3218 3218 3218 3218 3218 3218 3218 3218 3219 3219 3219 3219
3180 3181 3183 3184 3186 3187 3189 3190 3191 3192 3193 3195 3196 3198 3199 3199 3200 3200 3201 3202 3204 3204 3205 3206 3207 3207 3207 3208 3208 3209 3210 3211 3212 3212 3213 3214 3215 3215 3215 3216 3216 3216 3216 3217 3217 3217 3217 3216 3216 3216 3216 3216 3216 3216 3216 3217 3217 3217 3217 3216 3216 3216 3216 3216 3216 3216 3216 3216 3217 3217 3217 3218 3218 3219 3219 3219 3219 3219 3219 3219 3219 3220 3220 3220 3220
3181 3183 3184 3185 3187 3188 3189 3190 3192 3193 3194 3196 3197 3199 3200 3200 3200 3201 3202 3204 3205 3206 3206 3207 3208 3208 3208 3209 3209 3210 3211 3212 3213 3213 3214 3215 3216 3216 3217 3217 3217 3217 3217 3218 3218 3218 3218 3217 3217 3217 3217 3217 3217 3217 3217 3217 3218 3217 3217 3217 3217 3217 3217 3217 3217 3217 3217 3218 3218 3218 3218 3218 3219 3219 3219 3219 3220 3220 3220 3220 3220 3221 3221 3221 3221
3182 3184 3185 3186 3188 3189 3190 3191 3192 3193 3195 3196 3198 3199 3200 3201 3201 3202 3204 3205 3206 3207 3208 3208 3209 3209 3210 3210 3211 3211 3212 3213 3214 3215 3216 3216 3217 3217 3217 3218 3218 3218 3218 3219 3219 3219 3218 3218 3218 3218 3218 3218 3218 3218 3218 3218 3218 3218 3218 3218 3218 3218 3218 3218 3218 3218 3218 3218 3219 3219 3219 3219 3219 3219 3220 3220 3220 3221 3221 3221 3221 3221 3222 3222 3222
3183 3184 3186 3187 3188 3189 3190 3191 3193 3194 3195 3197 3198 3200 3201 3202 3202 3203 3204 3205 3206 3208 3209 3210 3210 3211 3211 3211 3212 3212 3213 3214 3215 3216 3216 3217 3218 3218 3218 3219 3219 3219 3219 3219 3220 3220 3219 3219 3219 3219 3218 3218 3218 3219 3219 3219 3219 3219 3219 3219 3219 3219 3219 3219 3219 3219 3219 3219 3220 3220 3220 3220 3220 3220 3220 3221 3221 3221 3221 3221 3222 3222 3222 3222 3223
3183 3185 3186 3188 3189 3190 3191 3192 3193 3195 3196 3197 3199 3200 3201 3202 3203 3204 3205 3206 3207 3209 3210 3211 3211 3212 3212 3213 3213 3214 3214 3215 3215 3216 3217 3218 3218 3219 3219 3219 3220 3220 3220 3220 3221 3221 3221 3220 3220 3220 3219 3219 3219 3219 3220 3220 3220 3220 3220 3220 3220 3220 3220 3220 3220 3220 3220 3220 3221 3221 3221 3221 3221 3221 3221 3221 3221 3222 3222 3222 3222 3222 3222 3223 3223
3184 3185 3187 3188 3189 3190 3192 3193 3194 3195 3197 3198 3199 3201 3202 3203 3204 3205 3206 3207 3208 3210 3211 3212 3212 3213 3213 3213 3214 3215 3215 3216 3216 3217 3218 3219 3219 3220 3220 3220 3221 3221 3221 3221 3221 3222 3221 3221 3221 3221 3220 3220 3220 3220 3220 3220 3221 3221 3221 3220 3220 3220 3220 3220 3221 3221 3221 3221 3221 3221 3222 3222 3221 3221 3222 3222 3222 3222 3222 3223 3223 3223 3223 3223 3223
3184 3186 3187 3188 3189 3191 3192 3194 3195 3196 3197 3198 3200 3201 3203 3204 3205 3206 3207 3208 3209 3211 3212 3212 3213 3213 3214 3215 3215 3216 3216 3217 3217 3218 3219 3220 3220 3221 3221 3221 3222 3222 3222 3222 3222 3222 3222 3222 3222 3222 3222 3221 3221 3221 3221 3221 3221 3221 3221 3221 3221 3221 3220 3220 3221 3221 3221 3222 3222 3222 3222 3222 3223 3223 3223 3223 3223 3223 3223 3223 3223 3223 3223 3223 3223
3184 3185 3187 3188 3190 3191 3193 3194 3195 3196 3198 3199 3201 3202 3203 3204 3205 3207 3208 3209 3210 3211 3212 3213 3214 3214 3215 3216 3216 3217 3218 3218 3218 3219 3220 3220 3221 3221 3222 3222 3222 3223 3223 3223 3223 3223 3223 3223 3222 3223 3222 3222 3222 3222 3222 3221 3221 3222 3222 3222 3221 3221 3221 3220 3221 3221 3222 3222 3222 3223 3223 3223 3224 3224 3224 3224 3224 3224 3224 3224 3224 3224 3224 3224 3224
3183 3185 3186 3188 3190 3191 3193 3194 3195 3197 3198 3200 3201 3202 3204 3205 3206 3207 3209 3210 3211 3212 3213 3214 3214 3215 3215 3216 3217 3218 3218 3219 3219 3220 3220 3221 3221 3222 3222 3223 3223 3223 3224 3224 3224 3224 3224 3224 3224 3223 3223 3223 3223 3223 3222 3222 3222 3222 3223 3222 3222 3222 3222 3221 3221 3222 3222 3223 3223 3223 3223 3224 3224 3225 3225 3225 3225 3225 3225 3225 3224 3224 3225 3225 3225
3183 3185 3186 3188 3190 3191 3193 3194 3196 3197 3199 3200 3202 3203 3204 3205 3207 3208 3209 3210 3212 3213 3213 3214 3215 3215 3216 3217 3217 3218 3219 3219 3220 3220 3221 3222 3222 3223 3223 3224 3224 3224 3224 3225 3225 3225 3225 3224 3224 3224 3223 3223 3224 3223 3223 3223 3223 3223 3223 3223 3222 3222 3222 3222 3222 3222 3222 3223 3223 3223 3224 3224 3224 3225 3225 3225 3225 3226 3226 3226 3225 3225 3225 3225 3225
3184 3185 3186 3188 3190 3191 3193 3194 3196 3198 3199 3201 3202 3203 3205 3206 3207 3209 3210 3211 3212 3213 3214 3214 3215 3216 3216 3217 3218 3219 3219 3220 3220 3221 3222 3222 3223 3223 3224 3224 3224 3225 3225 3225 3225 3225 3225 3225 3224 3224 3224 3224 3224 3224 3224 3224 3223 3223 3223 3223 3223 3222 3222 3223 3223 3222 3223 3223 3223 3223 3224 3224 3225 3225 3226 3226 3226 3226 3226 3226 3226 3226 3226 3226 3226
3184 3185 3187 3188 3190 3191 3193 3194 3196 3198 3199 3201 3202 3203 3205 3206 3208 3209 3210 3211 3212 3213 3214 3215 3215 3216 3217 3217 3218 3219 3220 3220 3221 3222 3222 3223 3224 3224 3224 3224 3225 3226 3226 3226 3226 3226 3226 3226 3225 3225 3225 3225 3225 3225 3225 3224 3224 3224 3224 3224 3224 3223 3222 3223 3223 3223 3223 3223 3223 3224 3224 3224 3225 3225 3226 3226 3227 3227 3227 3227 3227 3227 3227 3227 3227
3183 3185 3187 3188 3190 3191 3193 3194 3196 3198 3199 3201 3202 3204 3205 3206 3208 3209 3210 3212 3212 3213 3214 3215 3216 3217 3218 3218 3218 3219 3220 3220 3221 3222 3223 3224 3224 3224 3225 3225 3225 3226 3227 3227 3226 3226 3227 3227 3227 3226 3225 3225 3225 3225 3225 3225 3225 3225 3225 3225 3225 3224 3223 3223 3224 3224 3223 3224 3224 3224 3224 3225 3225 3226 3226 3227 3227 3227 3228 3228 3228 3228 3228 3228 3228
3183 3185 3186 3188 3189 3191 3193 3194 3196 3198 3199 3201 3202 3204 3205 3206 3208 3209 3210 3212 3213 3213 3214 3215 3216 3217 3218 3219 3219 3220 3221 3221 3222 3222 3223 3224 3224 3225 3225 3225 3226 3226 3227 3227 3227 3227 3227 3227 3227 3226 3225 3225 3225 3225 3226 3225 3225 3225 3225 3225 3225 3225 3224 3222 3224 3224 3223 3224 3224 3224 3225 3225 3225 3225 3226 3226 3227 3228 3228 3228 3228 3229 3228 3229 3229
3182 3184 3185 3187 3189 3191 3192 3194 3196 3197 3199 3200 3202 3203 3205 3206 3208 3209 3210 3212 3213 3214 3215 3215 3216 3217 3219 3219 3220 3220 3221 3222 3223 3223 3224 3225 3225 3225 3225 3226 3227 3227 3227 3227 3227 3228 3228 3228 3227 3225 3225 3226 3226 3226 3226 3226 3225 3225 3225 3225 3225 3225 3225 3223 3223 3224 3224 3224 3225 3225 3225 3225 3225 3225 3225 3226 3227 3228 3228 3228 3229 3229 3229 3229 3229
3182 3183 3185 3187 3189 3190 3192 3194 3195 3197 3198 3200 3201 3203 3205 3206 3207 3209 3210 3212 3213 3214 3215 3216 3217 3218 3219 3220 3221 3221 3221 3222 3224 3224 3224 3225 3226 3226 3226 3227 3227 3227 3227 3227 3228 3228 3228 3228 3226 3225 3226 3226 3226 3226 3226 3226 3225 3225 3225 3225 3225 3225 3226 3224 3223 3224 3224 3224 3225 3225 3224 3225 3225 3225 3225 3226 3227 3228 3228 3228 3229 3229 3229 3229 3230
3181 3183 3184 3186 3188 3189 3191 3193 3195 3197 3198 3199 3201 3203 3204 3206 3207 3208 3210 3211 3212 3214 3215 3216 3217 3218 3219 3220 3221 3222 3222 3222 3224 3224 3225 3226 3226 3226 3227 3227 3228 3227 3227 3228 3229 3229 3228 3227 3226 3226 3227 3227 3227 3227 3226 3226 3225 3225 3225 3225 3225 3225 3226 3225 3222 3222 3224 3224 3225 3225 3225 3225 3225 3225 3225 3226 3227 3228 3229 3229 3229 3229 3229 3230 3230
3180 3182 3184 3185 3187 3189 3191 3192 3194 3196 3198 3199 3200 3202 3204 3205 3207 3208 3210 3211 3212 3214 3215 3216 3217 3218 3220 3221 3222 3222 3223 3223 3224 3225 3226 3226 3226 3227 3227 3228 3228 3227 3227 3228 3228 3228 3227 3226 3227 3227 3227 3227 3227 3227 3227 3226 3226 3225 3225 3225 3225 3225 3226 3226 3223 3222 3224 3225 3225 3225 3225 3225 3225 3225 3225 3226 3227 3228 3229 3229 3229 3229 3229 3230 3230
3180 3181 3183 3184 3186 3188 3190 3192 3194 3195 3197 3199 3200 3202 3203 3205 3207 3208 3209 3211 3212 3214 3215 3216 3217 3218 3220 3221 3222 3222 3223 3224 3224 3225 3225 3226 3226 3227 3227 3228 3227 3228 3227 3228 3228 3228 3228 3228 3228 3228 3228 3228 3228 3228 3227 3227 3226 3225 3225 3225 3225 3226 3226 3227 3225 3223 3224 3225 3225 3225 3225 3225 3225 3225 3226 3226 3227 3228 3228 3229 3229 3229 3229 3229 3230
3179 3181 3182 3184 3186 3187 3189 3191 3192 3194 3196 3198 3200 3201 3203 3204 3206 3208 3209 3210 3212 3213 3215 3216 3217 3218 3219 3221 3222 3222 3223 3224 3224 3225 3225 3226 3226 3226 3227 3227 3227 3228 3228 3229 3228 3228 3229 3229 3229 3229 3228 3228 3228 3228 3228 3227 3226 3226 3225 3225 3225 3225 3226 3227 3225 3223 3223 3225 3225 3225 3225 3225 3225 3225 3226 3226 3227 3228 3228 3228 3229 3229 3229 3229 3229
3179 3180 3182 3183 3185 3187 3188 3190 3192 3194 3196 3197 3199 3201 3202 3204 3206 3207 3208 3210 3212 3213 3214 3216 3217 3218 3219 3220 3221 3222 3223 3224 3224 3225 3225 3226 3226 3226 3227 3227 3227 3228 3228 3229 3229 3229 3229 3229 3229 3229 3229 3228 3228 3229 3228 3228 3227 3226 3225 3225 3225 3225 3225 3225 3225 3224 3224 3225 3225 3225 3225 3225 3225 3225 3226 3226 3227 3227 3228 3228 3228 3229 3229 3229 3229
3178 3180 3181 3183 3184 3186 3188 3189 3191 3193 3195 3196 3198 3200 3201 3203 3205 3206 3208 3209 3211 3212 3214 3215 3216 3217 3218 3220 3221 3222 3223 3224 3224 3225 3225 3226 3226 3227 3227 3227 3227 3228 3228 3228 3229 3229 3229 3229 3229 3229 3229 3229 3229 3229 3229 3228 3227 3226 3225 3225 3224 3224 3224 3224 3224 3224 3225 3225 3225 3225 3225 3225 3225 3225 3226 3226 3226 3227 3227 3227 3228 3228 3228 3228 3229
3178 3179 3180 3182 3183 3185 3187 3188 3190 3192 3194 3195 3197 3199 3200 3202 3204 3205 3207 3209 3210 3212 3213 3214 3216 3217 3218 3219 3221 3222 3223 3224 3224 3225 3225 3226 3226 3227 3227 3227 3227 3228 3228 3228 3229 3229 3229 3229 3229 3229 3229 3229 3229 3229 3228 3228 3227 3226 3225 3225 3224 3224 3223 3223 3224 3225 3225 3225 3226 3225 3225 3225 3225 3225 3226 3226 3226 3227 3227 3227 3227 3228 3228 3228 3228
3177 3179 3180 3181 3183 3184 3186 3187 3189 3191 3192 3194 3196 3198 3199 3201 3203 3204 3206 3208 3209 3211 3212 3214 3215 3216 3217 3219 3220 3221 3223 3223 3224 3225 3225 3225 3226 3226 3226 3227 3227 3227 3228 3228 3229 3229 3229 3229 3229 3229 3229 3229 3229 3229 3228 3228 3227 3226 3226 3225 3224 3224 3223 3224 3225 3225 3225 3226 3226 3226 3225 3225 3226 3226 3226 3226 3226 3227 3227 3227 3227 3228 3227 3227 3227
3176 3178 3179 3181 3182 3183 3185 3186 3188 3189 3191 3193 3195 3196 3198 3200 3202 3203 3205 3207 3209 3210 3212 3213 3214 3215 3216 3218 3220 3221 3222 3223 3224 3225 3225 3225 3225 3226 3226 3226 3227 3227 3228 3228 3229 3229 3229 3229 3229 3229 3229 3229 3229 3229 3228 3228 3227 3227 3226 3225 3225 3224 3224 3224 3225 3225 3226 3226 3226 3226 3226 3226 3226 3226 3226 3226 3226 3226 3226 3227 3227 3227 3227 3227 3227
3175 3177 3178 3180 3181 3182 3184 3185 3186 3188 3189 3191 3193 3195 3197 3199 3200 3202 3204 3206 3208 3209 3211 3212 3213 3215 3216 3217 3219 3220 3222 3223 3224 3224 3225 3225 3225 3226 3226 3226 3227 3227 3228 3228 3229 3229 3229 3229 3229 3229 3229 3229 3229 3229 3228 3228 3228 3227 3226 3225 3225 3224 3224 3225 3225 3225 3226 3226 3226 3227 3227 3227 3227 3227 3227 3226 3226 3226 3227 3227 3227 3227 3227 3227 3227
3174 3175 3176 3178 3179 3181 3182 3184 3185 3187 3188 3190 3191 3193 3195 3197 3199 3201 3203 3205 3207 3209 3210 3212 3213 3214 3215 3217 3218 3220 3221 3222 3223 3224 3224 3224 3225 3225 3226 3226 3226 3227 3227 3228 3229 3229 3229 3229 3228 3228 3229 3229 3229 3229 3228 3228 3227 3226 3226 3226 3225 3225 3225 3225 3225 3225 3226 3226 3227 3227 3226 3227 3227 3227 3227 3226 3226 3226 3227 3227 3227 3227 3227 3227 3227
3172 3173 3175 3177 3178 3179 3181 3183 3184 3186 3187 3189 3191 3193 3195 3197 3199 3201 3203 3205 3206 3208 3209 3211 3212 3213 3214 3216 3217 3219 3220 3221 3222 3223 3224 3224 3224 3225 3225 3225 3226 3226 3227 3228 3229 3229 3228 3228 3228 3229 3229 3229 3229 3228 3228 3227 3227 3226 3226 3226 3225 3225 3225 3225 3225 3226 3226 3226 3227 3227 3226 3227 3228 3228 3227 3227 3227 3226 3227 3226 3226 3227 3227 3227 3226
3171 3172 3174 3175 3177 3178 3179 3181 3183 3184 3186 3188 3190 3192 3194 3196 3198 3200 3202 3204 3205 3207 3209 3210 3211 3211 3213 3215 3216 3218 3219 3221 3222 3223 3223 3223 3224 3225 3225 3225 3226 3226 3226 3227 3228 3228 3228 3228 3228 3228 3229 3229 3229 3228 3227 3227 3226 3226 3226 3226 3225 3225 3225 3225 3225 3226 3226 3226 3227 3227 3227 3226 3227 3228 3228 3227 3227 3227 3227 3227 3226 3226 3226 3226 3226
3169 3171 3172 3174 3175 3176 3178 3180 3181 3183 3185 3187 3189 3191 3193 3195 3197 3199 3201 3202 3204 3206 3207 3208 3209 3210 3212 3214 3215 3217 3218 3219 3220 3222 3222 3223 3223 3224 3224 3225 3226 3226 3226 3226 3227 3227 3228 3228 3228 3228 3228 3229 3228 3228 3227 3227 3226 3226 3226 3226 3225 3225 3225 3225 3226 3226 3226 3226 3227 3227 3227 3227 3227 3228 3228 3227 3227 3227 3227 3227 3227 3226 3226 3226 3226
3167 3169 3170 3172 3174 3175 3176 3178 3180 3182 3184 3186 3188 3190 3192 3194 3195 3197 3199 3200 3202 3203 3205 3207 3208 3209 3211 3213 3214 3215 3217 3218 3219 3220 3221 3222 3223 3223 3224 3225 3225 3225 3225 3226 3227 3227 3227 3227 3228 3228 3228 3228 3228 3228 3227 3227 3226 3226 3225 3225 3225 3225 3225 3226 3226 3226 3226 3226 3226 3227 3227 3228 3228 3227 3228 3227 3227 3227 3227 3227 3227 3227 3227 3227 3227
3165 3168 3169 3171 3172 3174 3175 3177 3179 3181 3183 3185 3187 3189 3190 3192 3194 3195 3197 3198 3200 3202 3205 3206 3208 3209 3210 3211 3213 3214 3215 3216 3217 3219 3220 3221 3222 3222 3223 3224 3224 3225 3225 3226 3226 3226 3227 3227 3227 3228 3228 3228 3228 3228 3227 3227 3226 3226 3226 3226 3225 3225 3226 3226 3226 3226 3226 3226 3227 3227 3227 3227 3227 3227 3227 3227 3227 3227 3227 3227 3227 3227 3227 3227 3227
3164 3166 3168 3169 3171 3172 3174 3176 3177 3179 3181 3183 3185 3187 3189 3190 3192 3194 3196 3198 3200 3202 3204 3205 3206 3208 3209 3210 3211 3213 3214 3215 3216 3217 3219 3220 3221 3221 3222 3223 3223 3224 3225 3225 3225 3225 3226 3226 3226 3227 3228 3228 3228 3228 3227 3227 3226 3226 3226 3226 3226 3226 3226 3226 3226 3226 3226 3226 3226 3227 3227 3227 3227 3227 3227 3227 3227 3227 3227 3227 3227 3227 3227 3227 3226
3162 3164 3166 3167 3169 3171 3172 3174 3176 3177 3179 3182 3184 3186 3187 3189 3191 3193 3195 3197 3199 3201 3203 3204 3205 3206 3208 3209 3210 3211 3213 3214 3215 3216 3217 3218 3220 3220 3221 3221 3222 3223 3224 3224 3224 3225 3225 3226 3226 3227 3227 3228 3228 3228 3228 3227 3227 3226 3226 3226 3226 3226 3226 3226 3226 3226 3226 3227 3226 3226 3226 3226 3226 3227 3226 3225 3226 3226 3226 3226 3227 3227 3227 3226 3226
3160 3162 3164 3166 3167 3169 3171 3172 3174 3176 3178 3180 3182 3184 3186 3188 3190 3192 3193 3195 3198 3199 3201 3202 3204 3205 3206 3207 3208 3210 3212 3212 3214 3215 3216 3217 3218 3219 3220 3220 3221 3222 3223 3224 3224 3224 3225 3225 3226 3226 3227 3227 3228 3228 3228 3227 3227 3227 3227 3226 3226 3226 3226 3226 3226 3226 3226 3226 3226 3226 3226 3226 3226 3226 3226 3225 3225 3225 3226 3226 3226 3226 3226 3226 3226
3159 3161 3163 3164 3165 3167 3168 3170 3172 3174 3176 3178 3180 3182 3185 3187 3188 3190 3192 3194 3196 3198 3199 3200 3202 3203 3205 3206 3207 3209 3210 3211 3212 3214 3215 3216 3217 3218 3219 3219 3220 3221 3222 3223 3223 3224 3224 3224 3225 3226 3226 3227 3227 3228 3228 3228 3228 3227 3227 3227 3226 3226 3226 3226 3226 3226 3226 3226 3226 3226 3226 3226 3225 3226 3226 3226 3225 3224 3225 3226 3225 3225 3226 3226 3225
3157 3159 3161 3162 3163 3164 3166 3168 3170 3172 3174 3175 3178 3181 3183 3185 3187 3189 3190 3192 3194 3196 3197 3199 3200 3202 3203 3205 3206 3207 3209 3210 3211 3212 3213 3214 3215 3217 3218 3218 3219 3220 3221 3222 3223 3223 3223 3224 3224 3225 3225 3226 3227 3227 3227 3228 3228 3227 3227 3227 3227 3226 3226 3226 3226 3226 3226 3226 3226 3226 3226 3225 3225 3226 3226 3226 3226 3224 3224 3225 3225 3224 3225 3225 3225